Regional Weather Roundup
Issued by NWS

Home | Current Version | Previous Version | Text Only | Print | Product List | Glossary On
Versions: 1 2 3 4 5 6 7 8 9 10 11 12 13 14 15 16 17 18 19 20 21 22 23 24 25 26 27 28 29 30 31 32 33 34 35 36 37 38 39 40 41 42 43 44 45 46 47 48 49 50
000
ASUS45 KREV 252010
RWRNV
NEVADA REGIONAL WEATHER ROUNDUP
NATIONAL WEATHER SERVICE RENO NV
100 PM PDT MON MAY 25 2015

NOTE: "FAIR" INDICATES FEW OR NO CLOUDS BELOW 12,000 FEET WITH NO
SIGNIFICANT WEATHER AND/OR OBSTRUCTIONS TO VISIBILITY.

NVZ001-003-004-252100-
WESTERN NEVADA

CITY           SKY/WX    TMP DP  RH WIND       PRES   REMARKS
RENO           TSTM      66  47  50 W14       29.97S
CARSON CITY    FAIR      70  39  32 NW6       29.97S
MINDEN         FAIR      73  39  29 S8        29.98
SLIDE MTN        N/A     50  36  57 S3          N/A
PYRAMID LAKE     N/A     70 N/A N/A N7          N/A
FALLON         MOSUNNY   75  42  30 VRB5      29.92F
LOVELOCK       LGT RAIN  70  48  45 W9        29.93F
HAWTHORNE      SUNNY     72  45  37 NW12      29.96F
$$

NVZ002-CAZ072-073-252100-
NORTHERN AND CENTRAL SIERRA

CITY           SKY/WX    TMP DP  RH WIND       PRES   REMARKS
S. LAKE TAHOE  PTSUNNY   60  46  59 NE8       30.05F
TRUCKEE        CLOUDY    55  46  71 NW9       30.07R
SQUAW VLY 8000   N/A     52  46  82 S5          N/A
SUSANVILLE     LGT RAIN  63  52  67 N8        29.97R
BLUE CANYON    MOSUNNY   62  45  53 SW7       30.07R
MAMMOTH LAKES  CLOUDY    63  37  39 N6        30.09S
BRIDGEPORT     FAIR      67  26  21 SW15G21   30.04S
$$

NVZ030-031-036-252100-
NORTHERN NEVADA

CITY           SKY/WX    TMP DP  RH WIND       PRES   REMARKS
ELKO           CLOUDY    63  42  46 NE15      29.97F
WINNEMUCCA     MOSUNNY   67  47  48 S5          N/A
WENDOVER       CLOUDY    68  46  45 SE9       29.95F
$$

NVZ035-037-252100-
CENTRAL NEVADA

CITY           SKY/WX    TMP DP  RH WIND       PRES   REMARKS
ELY            PTSUNNY   65  34  31 E6        30.05F
EUREKA           N/A     65  39  38 N9G17     30.02F
$$

NVZ013-014-252100-
SOUTH CENTRAL NEVADA

CITY           SKY/WX    TMP DP  RH WIND       PRES   REMARKS
TONOPAH        PTSUNNY   72  32  23 SW9       30.02F
$$

NVZ017-020-022-252100-
SOUTHERN NEVADA

CITY           SKY/WX    TMP DP  RH WIND       PRES   REMARKS
LAS VEGAS      MOSUNNY   80  48  32 VRB3      29.89F
N. LAS VEGAS   MOSUNNY   78  48  34 CALM      29.92F
NELLIS AFB     SUNNY     78  51  38 E6        29.91F
HENDERSON      SUNNY     79  53  40 N8        29.95F
MERCURY        SUNNY     80  40  23 VRB5      29.94F
$$


USA.gov is the U.S. government's official web portal to all federal, state and local government web resources and services.